sat.trackr.live / text

‹ back to catalog

EUCROPIS

NORAD 43807 · 2018-099BB

PAYLOAD ACTIVE UNKNOWN

§ Identity

Operator
Country
GER
Launch date
2018-12-03
Launch site
AFWTR
Launch vehicle
Mass (kg)
RCS (m²)

External: N2YO · Heavens-Above · Gunter

§ Orbital elements

Epoch: 2026-09-19T22:06:08.136000Z

Period
94.63 min
Inclination
97.4128°
Eccentricity
0.0004356
Mean motion
15.21758097 rev/d
Perigee alt
497.5 km
Apogee alt
503.5 km
Semi-major
6,878.7 km
B*
2.0288e-4
RAAN
317.2860°
Arg perigee
342.4190°
Mean anomaly
17.6895°
Rev number
42,686

§ Raw data

EUCROPIS1 43807U 18099BB  26262.92092750  .00004531  00000+0  20288-3 0  99962 43807  97.4128 317.2860 0004356 342.4190  17.6895 15.21758097426860

JSON: /api/v1/satellites/43807 · /tle

For live sub-satellite position, see the globe view (requires WebGL).

§ Visibility from observer

Set your observer location to see the next 7 days of passes ≥ 10°. The values pass through the URL so the page stays shareable.

No JS? Fill the form by hand. The geolocation button needs JavaScript.

§ Radio — SatNOGS DB

ModeDescriptionDownlinkUplink
FM S-band telemetry 2.263 GHz

1 transmitter · refreshed weekly from db.satnogs.org